Regional Weather Roundup
Issued by NWS

Home | Current Version | Previous Version | Text Only | Print | Product List | Glossary On
Versions: 1 2 3 4 5 6 7 8 9 10 11 12 13 14 15 16 17 18 19 20 21 22 23 24 25 26 27
000
ASUS42 KTBW 310217
RWRFL
FLORIDA REGIONAL WEATHER ROUNDUP
NATIONAL WEATHER SERVICE TAMPA BAY RUSKIN FL
1000 PM EDT MON MAY 30 2016

NOTE: "FAIR" INDICATES FEW OR NO CLOUDS BELOW 12,000 FEET WITH NO
SIGNIFICANT WEATHER AND/OR OBSTRUCTIONS TO VISIBILITY.

FLZ001>010-012>015-112-114-115-310300-
PANHANDLE FLORIDA

CITY           SKY/WX    TMP DP  RH WIND       PRES   REMARKS
PENSACOLA      CLEAR     80  71  74 W8        29.93R
MILTON NAS     CLEAR     74  66  76 W6        29.94
CRESTVIEW      PTCLDY    78  66  66 SE5       29.95R
DUKE FIELD     FAIR      78  68  72 S5        29.93R
VALPARAISO     PTCLDY    79  71  75 CALM      29.94R
MARY ESTHER    CLEAR     79  74  83 W3        29.93R
TRI COUNTY     FAIR      71  66  84 CALM      29.95R
PANAMA CITY    FAIR      77  72  84 CALM      29.93R
TYNDALL AFB    CLOUDY    80  75  86 W7        29.94S
APALACHICOLA   CLEAR     78  76  93 W5        29.94S

STATION/POSITION SKY/WX   TEMP    WIND        PRES    WAVE   SWELL
                          AIR SEA DIR/SP/G            HT/PER HT/PER
                          (F)     (DEG/KT/KT) (MB)    (FT/S) (FT/S)
30.1N   87.6W              81 82              1013.2R   1/ 3
29.2N   88.2W              80 81  230/  6/  6 1014.4R
28.8N   86.0W              80 81  290/  6/  8 1014.8R   1/ 3
PANAMA CITY BEAC              81              1013.8
TOWER C                    79     300/ 12/ 13 1015.0R
28.5N   84.5W              80 80  270/  6/  8 1014.4R   1/ 4

$$
FLZ011-016>038-118-127-128-134-139-239-310300-
NORTH FLORIDA

CITY           SKY/WX    TMP DP  RH WIND       PRES   REMARKS
MARIANNA       PTCLDY    76  65  68 CALM      29.93R
TALLAHASSEE    CLOUDY    78  65  63 S3        29.94R
PERRY          CLOUDY    78  74  87 SW3       29.95S
LIVE OAK       FAIR      75  66  73 CALM      29.97R
CROSS CITY       N/A     80  72  76 W5        29.96R
LAKE CITY      FAIR      73  68  83 CALM      29.97R
GAINESVILLE    LGT RAIN  73  66  78 NW6       29.97R
WILLISTON      FAIR      75  70  83 CALM      29.98R
PALATKA        CLOUDY    73  72  94 SE3       29.99R
MAYPORT NAS    PTCLDY    79  72  79 SW9       29.93R
JACKSONVILLE   PTCLDY    79  67  66 SW5       29.93R
JAX NAS        MOCLDY    81  66  60 S8        29.95R
JAX CECIL        N/A     75  64  69 CALM      29.95R
FERNANDINA BEA FAIR      81  73  78 S8        29.92S
ST AUGUSTINE   CLOUDY    73  66  78 SW8       29.96R
PALM COAST     LGT RAIN  69  69 100 S10       29.97F

STATION/POSITION SKY/WX   TEMP    WIND        PRES    WAVE   SWELL
                          AIR SEA DIR/SP/G            HT/PER HT/PER
                          (F)     (DEG/KT/KT) (MB)    (FT/S) (FT/S)
SHELL POINT                80     250/  7/  9 1012.3
KEATON BEACH               81     260/ 12/ 13 1013.8F
CEDAR KEY                  81     290/  8/ 10 1015.1R
FERNANDINA                    82              1013.1
30.7N   81.3W                 79                N/A     2/ 8
MAYPORT                       81              1013.6
31.4N   80.9W              79 78  160/ 10/ 12 1013.5R   2/ 8   2/ 8
ST AUGUSTINE               74 81  220/ 11/ 15 1015.3R

$$
FLZ040-043>046-052-053-057-058-063-144-310300-
INTERIOR CENTRAL FLORIDA

CITY           SKY/WX    TMP DP  RH WIND       PRES   REMARKS
OCALA          MOCLDY    77  64  65 CALM      29.99R
THE VILLAGES     N/A     77  70  78 MISG      29.90R
LEESBURG       CLOUDY    75  66  73 S14       30.01R
SANFORD        LGT RAIN  71  67  87 NE8       30.01R
ORLANDO EXEC   CLOUDY    77  66  68 N9G20     30.02R THUNDER
ORLANDO INTL   MOCLDY    78  68  71 NE10      30.00R
KISSIMMEE      PTCLDY    79  72  78 S7        29.98R
WINTER HAVEN   MOCLDY    77  68  73 SW8       30.00R
LAKELAND       PTCLDY    79  68  69 S16       30.00R
BARTOW         FAIR      75  66  73 S10       30.00R
OKEECHOBEE     CLOUDY    72  68  88 CALM      29.99F

$$
FLZ041-047-054-059-064-141-147-310300-
EAST CENTRAL FLORIDA

CITY           SKY/WX    TMP DP  RH WIND       PRES   REMARKS
DAYTONA BEACH  TSTM      69  68  96 S5        29.99R
DELAND           N/A     68  66  94 SW3       30.02R
NEW SMYRNA BEA MOCLDY    70  66  88 S12       29.99R
CAPE CANAVERAL CLOUDY    81  71  71 SW6       29.96R
PATRICK AFB    CLOUDY    82  71  68 S12       29.97R
MELBOURNE      CLOUDY    80  70  71 S9        29.97R
VERO BEACH     PTCLDY    79  70  74 SW6       29.99R
FT PIERCE      CLEAR     75  72  90 CALM      29.98R
STUART         CLEAR     81  72  74 S5        29.99R

STATION/POSITION SKY/WX   TEMP    WIND        PRES    WAVE   SWELL
                          AIR SEA DIR/SP/G            HT/PER HT/PER
                          (F)     (DEG/KT/KT) (MB)    (FT/S) (FT/S)
28.5N   80.2W              81 80  170/ 10/ 12 1014.8R
28.9N   78.5W              79 80  180/  8/  8 1015.1R
TRIDENT PIER                  83              1014.3
28.4N   80.5W                 82                N/A     2/ 8
27.5N   80.2W                 80                N/A     2/ 8

$$
FLZ050-056-061-142-242-148-248-149-249-151-251-155-255-
160-260-310300-
WEST CENTRAL FLORIDA

CITY           SKY/WX    TMP DP  RH WIND       PRES   REMARKS
CRYSTAL RIVER  FAIR      79  72  78 CALM      29.97S
INVERNESS      MOCLDY    77  72  83 CALM      29.99R
BROOKSVILLE    CLEAR     76  71  85 NW3       29.99R
ZEPHYRHILLS    FAIR      72  66  81 CALM      29.99R THUNDER
CLEARWATER AIR FAIR      79  70  73 CALM      29.97R
ST PETE CLEARW CLEAR     79  68  69 VRB5      29.97R
TAMPA INTL     PTCLDY    82  65  56 NW5       29.98R
TAMPA EXEC       N/A     77  72  83 SE5       29.99
PLANT CITY     MOCLDY    79  70  73 S9        30.02R
MACDILL AFB    PTCLDY    80  69  68 NW2       29.97R
PETER O KNIGHT CLEAR     84  68  58 CALM      29.98R
ST PETERSBURG  CLEAR     82  67  60 W3        29.96R
SARASOTA       CLEAR     78  65  63 SE7       29.97R
VENICE         NOT AVBL

STATION/POSITION SKY/WX   TEMP    WIND        PRES    WAVE   SWELL
                          AIR SEA DIR/SP/G            HT/PER HT/PER
                          (F)     (DEG/KT/KT) (MB)    (FT/S) (FT/S)
27.3N   84.2W                 83                N/A     1
CLEARWATER BEACH              85              1014.5
MIDDLE TAMPA BAY NOT AVBL
VENICE                     76 81   80/  3/  3 1015.1R

$$
FLZ066-069-070-075>078-162-262-165-265-310300-
SOUTHWEST FLORIDA AND KEYS

CITY           SKY/WX    TMP DP  RH WIND       PRES   REMARKS
PUNTA GORDA    CLOUDY    75  68  78 CALM      30.00R
FT MYERS       LGT RAIN  74  70  87 CALM      29.97S
SOUTHWEST INTL CLOUDY    73  70  90 SW3       29.98S
NAPLES         MOCLDY    76  69  79 N6        29.98R
MARCO ISLAND   CLOUDY    73  66  78 E5        29.99R
MARATHON       PTCLDY    82  70  66 E5        29.97R
KEY WEST NAS   PTCLDY    79  65  62 E6        29.97S
KEY WEST INTL  PTCLDY    80  66  62 E6        29.97S

STATION/POSITION SKY/WX   TEMP    WIND        PRES    WAVE   SWELL
                          AIR SEA DIR/SP/G            HT/PER HT/PER
                          (F)     (DEG/KT/KT) (MB)    (FT/S) (FT/S)
NAPLES                        86              1014.6
26.0N   85.6W              80 83   60/  4/  6 1015.2S   1
DRY TORTUGAS               82     120/  5/  6 1015.1R
SAND KEY                   82     100/  8/ 12 1015.1S
LONG KEY                   82 87  100/  8/  9 1015.3R

$$
FLZ067-068-071>074-168-172>174-310300-
SOUTHEAST FLORIDA

CITY           SKY/WX    TMP DP  RH WIND       PRES   REMARKS
W PALM BEACH   PTCLDY    81  69  67 S3        29.99R
BOCA RATON     PTCLDY    81  72  74 E3        29.98R
FT LAUDER-EXEC PTCLDY    81  69  67 E7        29.98R
FT LAUDERDALE  MOCLDY    81  70  69 E7        29.97R
POMPANO BEACH  MOCLDY    80  71  74 E8        29.98R
PEMBROKE PINES PTCLDY    80  70  71 E6        29.99R
OPA LOCKA      MOCLDY    80  70  71 E3        29.99R
MIAMI          MOCLDY    80  70  71 E6        29.98R
WEST KENDALL   MOCLDY    76  72  87 W5        29.98R
HOMESTEAD      CLOUDY    81  72  75 N5        29.98R THUNDER

STATION/POSITION SKY/WX   TEMP    WIND        PRES    WAVE   SWELL
                          AIR SEA DIR/SP/G            HT/PER HT/PER
                          (F)     (DEG/KT/KT) (MB)    (FT/S) (FT/S)
PORT EVERGLADES            82      90/  5/  8 1015.1R
VIRGINIA KEY                  84              1015.1
LAKE WORTH                    84              1014.8
FOWEY ROCKS                81 83   90/  7/  8 1015.8R
SETTLEMENT POINT           80     140/  5/  6 1016.1R

$$





USA.gov is the U.S. government's official web portal to all federal, state and local government web resources and services.